Flag for Slovakia

Past Weather in Prievidza, Slovakia — Yesterday and Last 2 Weeks

Now
55 °F

Overcast.


Feels Like: N/A
Forecast: 58 / 49 °F
Wind: N/A

Location: Prievidza
Current Time: Sep 29, 2020 at 1:57:49 pm
Latest Report: Sep 29, 2020 at 1:00 pm
Visibility: 11 mi
Pressure29.94 "Hg
Humidity: 82%
Dew Point: 50 °F
Location of PrievidzaLocation

Past Weather in Prievidza — Graph

°F

Prievidza Temperature Yesterday

Maximum temperature yesterday: 59 °F (at 1:00 pm)
Minimum temperature yesterday: 46 °F (at 12:00 am)
Average temperature yesterday: 52 °F

High & Low Weather Summary for the Past Weeks

 TemperatureHumidityPressure
High86 °F (Sep 14, 4:00 pm)94% (Sep 24, 8:00 am)30.39 "Hg (Sep 24, 8:00 am)
Low42 °F (Sep 27, 7:00 am)16% (Sep 18, 3:00 pm)29.23 "Hg (Sep 26, 4:00 am)
Average61 °F69%29.97 "Hg
* Reported Sep 14 12:00 pm — Sep 29 12:00 pm, Prievidza. Weather by CustomWeather, © 2020

Note: Actual official high and low records may vary slightly from our data, if they occured in-between our weather recording intervals... More about our weather records

Prievidza Weather History for the Previous 24 Hours

Scroll right to see more
 ConditionsComfort  
Time TempWeatherWind HumidityBarometerVisibility
12:00 pm
Tue, Sep 29
55 °FOvercast.2 mph85%29.94 "Hg9 mi
11:00 am54 °FLow clouds.2 mph88%29.94 "Hg8 mi
10:00 am54 °FLow clouds.N/A90%29.92 "Hg8 mi
9:00 am52 °FLight rain. Overcast.N/A93%29.92 "Hg7 mi
8:00 am53 °FLight rain. Overcast.3 mph93%29.91 "Hg7 mi
7:00 am53 °FCool.2 mph93%29.89 "HgN/A
6:00 am53 °FCool.2 mph93%29.88 "HgN/A
5:00 am54 °FCool.N/A94%29.88 "HgN/A
4:00 am54 °FCool.N/A94%29.87 "HgN/A
3:00 am53 °FCool.No wind93%29.87 "HgN/A
2:00 am53 °FCool.N/A93%29.87 "HgN/A
1:00 am53 °FCool.No wind93%29.87 "HgN/A
12:00 am53 °FCool.No wind92%29.87 "HgN/A
11:00 pm
Mon, Sep 28
53 °FCool.N/A92%29.87 "HgN/A
10:00 pm53 °FOvercast.2 mph92%29.86 "Hg7 mi
9:00 pm54 °FLight rain. Overcast.3 mph91%29.85 "Hg7 mi
8:00 pm54 °FOvercast.2 mph88%29.85 "Hg9 mi
7:00 pm54 °FOvercast.2 mph87%29.84 "Hg16 mi
6:00 pm55 °FOvercast.3 mph85%29.82 "Hg14 mi
5:00 pm55 °FOvercast.3 mph87%29.82 "Hg12 mi
4:00 pm55 °FOvercast.3 mph85%29.83 "Hg16 mi
2:00 pm55 °FRain. Overcast.3 mph83%29.83 "Hg7 mi
1:00 pm59 °FOvercast.N/A67%29.81 "Hg11 mi
Weather by CustomWeather, © 2020

See weather overview